Weather History for KO86 - October, 2012

Change the Weather History Date:

Friday, October 12, 2012

  Actual Average (KMHS) Record (KMHS)
Temperature  
Mean Temperature 55 °F 53 °F  
Max Temperature 57 °F 68 °F 86 °F (1921)
Min Temperature 53 °F 37 °F 25 °F (1928)
Degree Days  
Heating Degree Days 10 12  
Month to date heating degree days 124  
Since 1 July heating degree days 361  
Cooling Degree Days 0 0  
Month to date cooling degree days 0  
Year to date cooling degree days 287  
Growing Degree Days 5 (Base 50)    
Moisture  
Dew Point 46 °F    
Average Humidity 70    
Maximum Humidity 77    
Minimum Humidity 59    
Precipitation  
Precipitation 0.00 in 0.05 in 3.55 in (1962)
Month to date precipitation 0.48  
Year to date precipitation 28.48  
Sea Level Pressure  
Sea Level Pressure 30.12 in    
Wind  
Wind Speed 3 mph ()    
Max Wind Speed 10 mph    
Max Gust Speed -    
Visibility 9.9 miles    
Events      
T = Trace of Precipitation, MM = Missing Value Source: Averaged Metar Reports

Daily Weather History Graph

Daily Weather History Graph

Search for Another Location

Airport or City:

Trip Planner

Search our weather history database for the weather conditions in past years. The results will help you decide how hot, cold, wet, or windy it might be!

Date:

Astronomy

Oct. 12, 2012 Rise Set
Actual Time 7:19 AM PDT 6:33 PM PDT
Civil Twilight 6:51 AM PDT 7:01 PM PDT
Nautical Twilight 6:20 AM PDT 7:33 PM PDT
Astronomical Twilight 5:48 AM PDT 8:05 PM PDT
Moon 4:07 AM PDT (10/12) 4:47 PM PDT (10/12)
Length of Visible Light 12h 09m
Length of Day
11h 14m
Waning Crescent, 10% of the Moon is Illuminated
Oct 12
Waning Crescent
Oct 15
New
Oct 21
First Quarter
Oct 29
Full
Nov 6
Last Quarter

Hourly Weather History & Observations

Time (PDT) Temp. Dew Point Humidity Pressure Visibility Wind Dir Wind Speed Gust Speed Precip Events Conditions
12:50 AM 55.4 °F 46.4 °F 72% 30.02 in 10.0 mi South 6.9 mph - N/A   Overcast
1:10 AM 55.4 °F 46.4 °F 72% 30.01 in 10.0 mi SSW 3.5 mph - N/A   Overcast
1:30 AM 55.4 °F 46.4 °F 72% 30.01 in 10.0 mi Calm Calm - N/A   Overcast
1:50 AM 55.4 °F 46.4 °F 72% 30.02 in 10.0 mi Calm Calm - N/A   Overcast
2:10 AM 55.4 °F 46.4 °F 72% 30.02 in 10.0 mi Calm Calm - N/A   Overcast
2:30 AM 55.4 °F 46.4 °F 72% 30.02 in 10.0 mi Calm Calm - N/A   Overcast
2:50 AM 55.4 °F 44.6 °F 67% 30.02 in 10.0 mi Calm Calm - N/A   Overcast
3:10 AM 55.4 °F 44.6 °F 67% 30.02 in 10.0 mi Calm Calm - N/A   Overcast
3:30 AM 55.4 °F 46.4 °F 72% 30.01 in 10.0 mi Calm Calm - N/A   Overcast
3:50 AM 55.4 °F 46.4 °F 72% 30.01 in 10.0 mi Calm Calm - N/A   Overcast
4:10 AM 55.4 °F 46.4 °F 72% 30.01 in 10.0 mi Calm Calm - N/A   Overcast
4:30 AM 55.4 °F 46.4 °F 72% 30.01 in 10.0 mi Calm Calm - N/A   Overcast
4:50 AM 55.4 °F 46.4 °F 72% 30.02 in 10.0 mi Calm Calm - N/A   Overcast
5:10 AM 55.4 °F 46.4 °F 72% 30.02 in 10.0 mi Calm Calm - N/A   Overcast
5:30 AM 55.4 °F 46.4 °F 72% 30.02 in 10.0 mi Calm Calm - N/A   Overcast
5:50 AM 53.6 °F 46.4 °F 77% 30.02 in 10.0 mi Calm Calm - N/A   Overcast
6:10 AM 53.6 °F 46.4 °F 77% 30.03 in 10.0 mi Calm Calm - N/A   Overcast
6:30 AM 53.6 °F 46.4 °F 77% 30.03 in 10.0 mi Calm Calm - N/A   Overcast
6:50 AM 53.6 °F 46.4 °F 77% 30.03 in 10.0 mi Calm Calm - N/A   Overcast
7:10 AM 53.6 °F 44.6 °F 72% 30.04 in 10.0 mi Calm Calm - N/A   Overcast
7:50 AM 53.6 °F 44.6 °F 72% 30.06 in 10.0 mi Calm Calm - N/A   Overcast
8:10 AM 53.6 °F 46.4 °F 77% 30.07 in 10.0 mi Calm Calm - N/A   Overcast
8:30 AM 53.6 °F 46.4 °F 77% 30.07 in 10.0 mi SSE 3.5 mph - N/A   Overcast
9:10 AM 55.4 °F 46.4 °F 72% 30.09 in 10.0 mi SSE 4.6 mph - N/A   Overcast
9:30 AM 55.4 °F 44.6 °F 67% 30.09 in 10.0 mi South 5.8 mph - N/A   Overcast
9:50 AM 55.4 °F 44.6 °F 67% 30.10 in 10.0 mi SSE 6.9 mph - N/A   Overcast
10:10 AM 55.4 °F 44.6 °F 67% 30.11 in 10.0 mi South 5.8 mph - N/A   Overcast
10:30 AM 55.4 °F 44.6 °F 67% 30.12 in 10.0 mi South 9.2 mph - N/A   Overcast
10:50 AM 55.4 °F 44.6 °F 67% 30.12 in 10.0 mi South 8.1 mph - N/A   Overcast
11:30 AM 55.4 °F 44.6 °F 67% 30.13 in 10.0 mi South 10.4 mph - N/A   Overcast
12:30 PM 55.4 °F 44.6 °F 67% 30.15 in 10.0 mi South 10.4 mph - N/A   Overcast
1:10 PM 55.4 °F 44.6 °F 67% 30.15 in 10.0 mi South 8.1 mph - N/A   Overcast
1:50 PM 55.4 °F 42.8 °F 63% 30.15 in 10.0 mi South 8.1 mph - N/A   Overcast
2:10 PM 57.2 °F 44.6 °F 63% 30.16 in 10.0 mi South 5.8 mph - N/A   Overcast
2:30 PM 57.2 °F 44.6 °F 63% 30.16 in 10.0 mi SSE 4.6 mph - N/A   Overcast
2:50 PM 57.2 °F 44.6 °F 63% 30.15 in 10.0 mi SE 4.6 mph - N/A   Overcast
3:10 PM 57.2 °F 44.6 °F 63% 30.15 in 10.0 mi Calm Calm - N/A   Overcast
3:30 PM 57.2 °F 42.8 °F 59% 30.15 in 10.0 mi SE 4.6 mph - N/A   Overcast
4:10 PM 57.2 °F 44.6 °F 63% 30.16 in 10.0 mi ENE 4.6 mph - N/A   Overcast
4:50 PM 57.2 °F 44.6 °F 63% 30.17 in 10.0 mi Calm Calm - N/A   Overcast
5:10 PM 57.2 °F 44.6 °F 63% 30.18 in 10.0 mi East 4.6 mph - N/A   Overcast
5:30 PM 57.2 °F 46.4 °F 67% 30.19 in 10.0 mi SE 8.1 mph - N/A   Overcast
6:10 PM 55.4 °F 46.4 °F 72% 30.20 in 10.0 mi SSE 9.2 mph - N/A   Overcast
6:30 PM 55.4 °F 46.4 °F 72% 30.21 in 10.0 mi SSE 6.9 mph - N/A   Overcast
6:50 PM 55.4 °F 46.4 °F 72% 30.22 in 10.0 mi SSE 4.6 mph - N/A   Overcast
7:10 PM 55.4 °F 46.4 °F 72% 30.22 in 10.0 mi SSE 5.8 mph - N/A   Overcast
7:30 PM 55.4 °F 46.4 °F 72% 30.23 in 10.0 mi ESE 3.5 mph - N/A   Overcast
7:50 PM 55.4 °F 46.4 °F 72% 30.23 in 10.0 mi SSE 5.8 mph - N/A   Overcast
8:10 PM 55.4 °F 46.4 °F 72% 30.25 in 10.0 mi SSE 4.6 mph - N/A   Overcast
8:30 PM 55.4 °F 46.4 °F 72% 30.25 in 10.0 mi SSE 4.6 mph - N/A   Overcast
9:50 PM 55.4 °F 46.4 °F 72% 30.27 in 8.0 mi Calm Calm - N/A   Overcast
10:10 PM 53.6 °F 46.4 °F 77% 30.27 in 7.0 mi NW 3.5 mph - N/A   Overcast
10:30 PM 53.6 °F 46.4 °F 77% 30.28 in 7.0 mi Calm Calm - N/A   Overcast
11:10 PM 53.6 °F 46.4 °F 77% 30.28 in 10.0 mi Calm Calm - N/A   Overcast
11:30 PM 53.6 °F 46.4 °F 77% 30.29 in 10.0 mi Calm Calm - N/A   Overcast
11:50 PM 53.6 °F 46.4 °F 77% 30.30 in 10.0 mi Calm Calm - N/A   Overcast